FENGYUN 1C DEB, 37421

Orbit data source: Space-Track

FENGYUN 1C DEB, 37421 is space debris in SSO originally from a launch on Mon, 10 May 1999 UTC launched from the Taiyaun Space Center, China (TSC). Fengyun 1C debris stems from the Chinese weather satellite Fengyun-1C, which was intentionally destroyed by a Chinese anti-satellite missile in 2007. This event dramatically increased the amount of space debris, with thousands of trackable fragments posing hazards to satellites and human spaceflight. The Fengyun 1C debris cloud has become a focal point in discussions about space sustainability and the need for international regulations to prevent the creation of new debris.

Loading next visibility...
Identifier
37421, 1999-025EGP
Orbit
SSO
Country
Flag of CNCN / PRC
Related business
Manufacturer
Unknown
Mission
Spacecraft
Bus & Motor
Unknown
Mass
Unknown
Launch date (UTC)
1999-05-10 (27 years ago)
Launch vehicle
Unknown
Launch site
Taiyaun Space Center, China (TSC)
Object type
Payload
Rocket body
Debris
Shape & HBR
Unknown shape, 0.1 m
Radar Cross Section
Small (<0.1 m²)

Expand to show TLE details & history
Last TLE update: 1 day ago

TLE from 1 day ago
0 FENGYUN 1C DEB
1 37421U 99025EGP 26070.66160554  .00000181  00000-0  24472-3 0  9992
2 37421  98.8979  19.8710 0407245 222.0489 134.8717 13.40639641621371
Epoch: 2026-03-11T15:52Z
TLE epoch observation values (Epoch: 2026-03-11T15:52:42.718Z)
Latitude
-0.00008°
Longitude
-27.62962°
Altitude
1,330.77 km
Speed
7.085 km/s
True Right ascension
01h 19m 29s
True Declination
0° 00' 00"
Sunlit
Object was in daylight at epoch
Visualization orbit readout
Latitude
Unknown
Longitude
Unknown
Altitude
Unknown
Speed
Unknown
Apparent Right ascension
Unknown
Apparent Declination
Unknown
Sunlit
N/A
Visualization observer readout
Local Sidereal Time
02:58:15
Azimuth
Unknown
Elevation
Unknown
Doppler factor
Unknown
Orbital elements
Apogee altitude
1,408.878 km
Perigee altitude
799.452 km
Semi-major axis
7,482.302 km
Eccentricity
0.04072
Inclination
98.8979°
RAAN
19.871°
Arg. of periapsis
222.0489°
True anomaly
138.06247°
Mean anomaly
134.8717°
Eccentric anomaly
136.4785°
Mean motion
3.35344 °/min
Orbital period
107.35 mins
BSTAR
0.00024472
Loading maneuver chart data...
Computing Atmospheric mass density...

Documentation

Showing up to 5 results
|